www.pogodaiklimat.ru

Погода и климат >> Архив погоды >> Кипр >> Akrotiri


ПОГОДА в Akrotiri

  • Прогноз погоды в Akrotiri
  • Монитор погоды в Akrotiri
  • Климат города

АРХИВ ПОГОДЫ в Akrotiri

Время (UTC), дата Ветер
(напр.,м/с)
 
Видим.   Явления Облачность Т
(С)
Тd
(С)
f
(%)
Тe
(С)
Тes
(С)
Комфортность P
(гПа)
Po
(гПа)
Тmin
(С)
Tmax
(С)
R
(мм)
R24
(мм)
S
(см)
02 15.10 СЗ 2 40 км ясно +18.4 +10.6 60 +20 +20 1014.1 1011.0
01 15.10 З 2 40 км ясно +17.9 +9.5 58 +18 +18 1014.0 1010.9
03 15.10 СЗ 2 40 км ясно +17.7 +9.5 59 +18 +18 1014.3 1011.2
04 15.10 СЗ 2 40 км 1/1 900 м
[Cu hum]
+17.5 +10.0 61 +18 +18 1014.8 1011.7
05 15.10 СЗ 2 40 км ясно +18.3 +10.4 60 +19 +20 1015.5 1012.4
06 15.10 С 3 40 км 1/1 900 м
[Cu hum]
+22.6 +11.6 50 +25 +27 комфорт 1016.0 1013.0 +16.9
08 15.10 В 5 40 км 1/1 1350 м
[Cu hum]
+26.1 +14.9 50 +29 +33 жарко 1016.4 1013.4
07 15.10 В 5 40 км 1/1 1200 м
[Cu hum]
+25.3 +14.8 52 +28 +30 жарко 1016.3 1013.3
09 15.10 Ю 5 50 км 1/1 1500 м
[Sc diur, vesp]
+26.5 +15.6 51 +30 +34 душно 1016.2 1013.2
10 15.10 Ю 5 40 км 1/1 1500 м
[Cu med, cong]
+26.6 +15.6 51 +30 +35 душно 1015.9 1012.9
11 15.10 Ю 5 40 км 1/1 1200 м
[Cb cap]
+26.8 +16.4 53 +30 +35 душно 1015.9 1012.9
12 15.10 ЮЗ 6 40 км 1/1 960 м
[Cb cap]
+25.6 +16.8 58 +29 +32 душно 1015.6 1012.6
14 15.10 С 5 30 км осадки на расстоянии 3/1 900 м
[Cb cap Ac cuf Ci ing]
+25.5 +8.8 35 +26 +27 жарко 1015.1 1012.1
13 15.10 З 6 30 км осадки на расстоянии 6/3 900 м
[Cb calv Ac cuf Ci ing]
+24.6 +15.6 57 +28 +29 душно 1015.5 1012.5
15 15.10 СВ 9
{13}
30 км осадки на расстоянии 6/5 1200 м
[Cb cap Ci ing]
+24.0 +8.8 38 +25 +25 комфорт 1015.4 1012.4
16 15.10 С 4 40 км 4/1 1200 м
[Cu hum Ac cuf]
+23.2 +7.4 36 +24 +24 комфорт 1015.5 1012.5
17 15.10 С 3 40 км 3/1 1500 м
[Sc Ci ing]
+22.2 +7.3 38 +23 +23 комфорт 1015.9 1012.9
18 15.10 СЗ 1 40 км 1/1 1500 м
[Sc]
+21.7 +11.0 51 +24 +24 комфорт 1016.2 1013.2 +26.8
20 15.10 СЗ 1 40 км 1/1 1200 м
[Sc]
+20.1 +11.8 59 +23 +23 комфорт 1016.8 1013.8
19 15.10 СЗ 1 40 км 1/1 1500 м
[Sc]
+21.0 +11.6 55 +24 +24 комфорт 1016.6 1013.6
21 15.10 СЗ 1 40 км 1/1 1200 м
[Cb cap]
+18.6 +11.4 63 +20 +20 1016.4 1013.3
22 15.10 СЗ 3 40 км 1/1 1200 м
[Cb cap]
+20.4 +9.0 48 +22 +22 комфорт 1015.7 1012.7
23 15.10 СЗ 4 40 км 1/1 1200 м
[Cb cap]
+21.2 +7.4 41 +22 +22 комфорт 1016.0 1012.9
00 16.10 С 1 40 км 3/1 1200 м
[Cb cap Ci ing]
+20.1 +10.5 54 +23 +23 комфорт 1016.6 1013.5
02 16.10 СЗ 2 40 км 4/1 1200 м
[Cu med, cong Ci fib]
+19.0 +9.4 54 +20 +20 1016.2 1013.1
01 16.10 З 2 40 км 3/1 1200 м
[Cb calv Ci sp]
+19.8 +9.3 51 +22 +22 комфорт 1016.1 1013.0
03 16.10 З 2 40 км 3/1 1200 м
[Sc Ci fib]
+19.2 +8.0 48 +21 +21 комфорт 1016.1 1013.0
04 16.10 З 3 50 км 1/0
[Ac trans Ci fib]
+19.5 +5.8 41 +20 +20 1016.1 1013.0
05 16.10 СЗ 2 50 км 1/0
[Ac trans Ci ing]
+19.5 +5.7 40 +21 +21 комфорт 1016.7 1013.6
06 16.10 С 2 50 км 1/0
[Ac trans Ci fib]
+23.0 +5.7 33 +23 +26 комфорт 1017.2 1014.2 +18.3
08 16.10 Ю 2 50 км ясно +27.2 +10.6 35 +28 +36 жарко 1017.2 1014.2
07 16.10 В 2 50 км 1/0
[Ac trans]
+25.7 +7.5 31 +26 +31 жарко 1017.1 1014.1
09 16.10 ЮЗ 4 50 км ясно +26.6 +9.0 33 +27 +34 жарко 1017.2 1014.2
10 16.10 ЮЗ 5 50 км ясно +27.2 +8.9 32 +27 +34 жарко 1017.0 1014.0
11 16.10 ЮЗ 5 50 км 1/0
[Ac trans]
+27.7 +11.9 37 +29 +34 жарко 1016.5 1013.5
12 16.10 ЮЗ 5 н/о н/о +27.0 +11.9 39 +28 +28 жарко 1016.1 1013.1
14 16.10 ЮЗ 5 40 км ясно +25.8 +11.9 42 +27 +28 жарко 1015.8 1012.8
13 16.10 ЮЗ 6 40 км 1/0
[Ac trans]
+26.5 +13.2 44 +28 +30 жарко 1015.9 1012.9
15 16.10 ЮЗ 4 40 км ясно +24.9 +12.6 46 +27 +27 жарко 1015.9 1012.9
16 16.10 ЮЗ 3 40 км 1/0
[Ac trans]
+23.9 +15.6 60 +27 +27 жарко 1016.3 1013.2
17 16.10 ЮЗ 3 50 км ясно +23.1 +15.0 60 +27 +27 душно 1016.4 1013.4
18 16.10 С 1 40 км ясно +21.5 +15.4 68 +25 +25 комфорт 1016.9 1013.8 +27.8
20 16.10 СЗ 2 40 км ясно +19.8 +12.3 62 +22 +22 комфорт 1017.1 1014.0
19 16.10 В 1 40 км ясно +20.1 +14.6 71 +24 +24 комфорт 1016.9 1013.9
21 16.10 СЗ 2 40 км ясно +20.0 +9.4 50 +22 +22 комфорт 1016.9 1013.8
22 16.10 З 2 40 км ясно +18.4 +9.2 55 +19 +19 1016.8 1013.7
23 16.10 З 2 40 км ясно +18.9 +8.2 50 +20 +20 1016.7 1013.6
00 17.10 СЗ 2 40 км ясно +19.1 +7.9 48 +20 +20 1016.5 1013.4
02 17.10 СЗ 2 40 км ясно +18.9 +9.1 53 +20 +20 1016.2 1013.2
01 17.10 СЗ 2 40 км ясно +18.7 +8.5 51 +20 +20 1016.1 1013.0
03 17.10 С 2 40 км ясно +19.3 +9.8 54 +21 +21 комфорт 1016.7 1013.6
04 17.10 СЗ 2 40 км ясно +18.1 +10.5 61 +19 +19 1017.0 1013.9
05 17.10 СЗ 2 50 км ясно +20.9 +9.9 49 +23 +24 комфорт 1017.6 1014.5
06 17.10 С 2 50 км 1/1 1200 м
[Cu hum]
+24.3 +8.8 37 +25 +27 комфорт 1018.1 1015.1 +17.4
08 17.10 В 7 50 км 1/1 1500 м
[Cu hum]
+27.4 +10.9 36 +28 +30 жарко 1018.2 1015.2
07 17.10 СВ 3 50 км 1/1 1200 м
[Cu hum]
+26.2 +12.4 42 +28 +32 жарко 1018.3 1015.3
09 17.10 В 7 50 км 1/1 1500 м
[Cu hum]
+27.7 +14.3 44 +30 +32 жарко 1018.2 1015.3
10 17.10 В 7 50 км 1/1 1500 м
[Cu hum]
+27.8 +12.1 38 +29 +32 жарко 1017.9 1014.9
11 17.10 В 5 50 км 1/1 1500 м
[Cu hum]
+28.6 +12.5 37 +30 +35 жарко 1017.4 1014.4
12 17.10 В 5 50 км 1/0 2000 м
[Ac trans]
+27.9 +13.9 42 +30 +34 жарко 1017.5 1014.5
14 17.10 Ю 3 50 км 1/0
[Ac trans]
+27.2 +16.2 51 +31 +32 душно 1017.5 1014.5
13 17.10 Ю 3 50 км 1/1 900 м
[Cu hum Ac trans]
+27.4 +16.2 50 +31 +34 душно 1017.4 1014.4
15 17.10 З 3 50 км 1/1 1500 м
[Sc diur, vesp]
+25.0 +16.4 59 +28 +29 жарко 1017.6 1014.6
16 17.10 З 3 50 км 1/1 1200 м
[Sc]
+24.0 +15.8 60 +27 +27 жарко 1017.9 1014.9
17 17.10 З 3 50 км ясно +24.0 +15.1 57 +27 +27 жарко 1018.1 1015.0
18 17.10 СЗ 2 50 км ясно +22.5 +15.3 64 +26 +26 жарко 1018.1 1015.0 +28.7
20 17.10 СЗ 1 50 км ясно +20.6 +13.4 63 +24 +24 комфорт 1018.0 1014.9
19 17.10 З 2 50 км ясно +21.2 +14.3 65 +24 +24 комфорт 1018.1 1015.0
21 17.10 СЗ 2 50 км ясно +19.4 +11.9 62 +21 +21 комфорт 1017.8 1014.7
22 17.10 СЗ 2 50 км ясно +18.2 +10.4 60 +19 +19 1017.6 1014.6
23 17.10 СЗ 2 50 км ясно +18.4 +8.2 51 +19 +19 1017.7 1014.6
00 18.10 З 2 50 км ясно +18.6 +5.9 43 +19 +19 1017.6 1014.5
02 18.10 СЗ 3 50 км ясно +18.7 +4.5 39 +19 +19 1017.3 1014.2
01 18.10 СЗ 2 50 км ясно +19.5 +4.1 36 +20 +20 1017.5 1014.4
03 18.10 С 2 50 км ясно +18.8 +5.7 42 +20 +20 1017.3 1014.2
04 18.10 С 2 50 км ясно +17.5 +5.0 44 +18 +18 1017.2 1014.1
05 18.10 СЗ 2 50 км ясно +19.6 +5.1 39 +21 +21 комфорт 1017.5 1014.5
06 18.10 СЗ 1 50 км ясно +22.8 +6.3 34 +23 +26 комфорт 1017.9 1014.8 +16.9
08 18.10 В 5 50 км ясно +28.2 +8.3 29 +28 +33 жарко 1017.5 1014.5
07 18.10 В 3 50 км ясно +27.2 +3.9 22 +26 +30 жарко 1017.6 1014.6
09 18.10 ЮВ 5 50 км ясно +29.1 +11.7 34 +30 +35 жарко 1017.4 1014.4
10 18.10 ЮВ 7 50 км ясно +29.2 +14.0 39 +31 +34 жарко 1016.7 1013.8
11 18.10 В 5 50 км ясно +28.5 +12.8 38 +30 +35 жарко 1016.5 1013.5
12 18.10 Ю 3 50 км ясно +28.3 +15.1 45 +31 +37 душно 1016.3 1013.3
14 18.10 З 3 50 км 1/1 1350 м
[Cu hum]
+26.2 +16.2 54 +30 +31 душно 1016.0 1013.0
13 18.10 С 2 50 км 1/1 1500 м
[Cu hum]
+27.2 +14.2 45 +29 +33 жарко 1016.2 1013.2
15 18.10 З 3 50 км ясно +25.2 +16.6 59 +29 +29 душно 1016.2 1013.1
16 18.10 З 2 50 км ясно +24.2 +16.1 61 +28 +28 душно 1016.4 1013.3
17 18.10 З 3 50 км ясно +23.6 +16.1 63 +27 +27 жарко 1016.7 1013.6
18 18.10 СЗ 1 50 км ясно +22.4 +15.8 66 +26 +26 жарко 1016.8 1013.7 +29.3
20 18.10 СЗ 2 50 км ясно +20.1 +13.2 64 +23 +23 комфорт 1016.7 1013.6
19 18.10 С 2 50 км ясно +21.0 +13.4 62 +25 +25 комфорт 1016.8 1013.8
21 18.10 С 2 50 км ясно +18.9 +12.5 66 +21 +21 комфорт 1016.5 1013.4
22 18.10 С 1 50 км ясно +17.9 +11.5 66 +19 +19 1016.4 1013.3
23 18.10 СЗ 1 50 км ясно +17.8 +10.1 61 +19 +19 1016.4 1013.3
00 19.10 СЗ 2 50 км ясно +18.0 +9.6 58 +19 +19 1016.0 1012.9
02 19.10 З 2 50 км ясно +16.5 +7.1 54 +17 +17 1015.8 1012.7
01 19.10 СЗ 2 40 км ясно +17.6 +8.6 56 +18 +18 1015.7 1012.6
03 19.10 СЗ 2 50 км ясно +16.2 +6.1 51 +17 +17 1016.0 1012.9
04 19.10 С 2 50 км ясно +16.7 +4.3 44 +17 +17 1016.3 1013.2
05 19.10 СЗ 2 60 км ясно +18.2 +3.1 37 +19 +19 1016.6 1013.5
06 19.10 СЗ 1 60 км ясно +21.4 +5.4 35 +22 +25 комфорт 1017.0 1013.9 +15.7
08 19.10 В 3 60 км ясно +27.3 +6.6 27 +27 +33 жарко 1016.9 1013.9
07 19.10 С 1 60 км ясно +26.2 +6.3 28 +26 +32 жарко 1016.9 1013.9
09 19.10 ЮВ 4 60 км ясно +27.9 +10.1 33 +28 +36 жарко 1016.7 1013.7
10 19.10 Ю 4 60 км ясно +27.4 +13.6 43 +29 +37 жарко 1016.3 1013.3
11 19.10 Ю 4 60 км ясно +27.8 +15.5 47 +31 +38 душно 1015.7 1012.7
12 19.10 Ю 3 60 км ясно +27.6 +14.5 45 +30 +36 жарко 1015.4 1012.4
14 19.10 З 3 50 км 1/1 2000 м
[Cu hum]
+26.9 +11.6 39 +28 +29 жарко 1015.0 1012.0
13 19.10 З 3 60 км 1/1 1500 м
[Cu hum]
+26.8 +14.2 46 +29 +32 жарко 1015.3 1012.3
15 19.10 З 3 40 км 1/1 2000 м
[Cu hum]
+25.1 +14.8 53 +28 +28 жарко 1015.2 1012.2
16 19.10 З 3 40 км ясно +24.1 +15.5 59 +27 +27 жарко 1015.3 1012.2
17 19.10 З 3 50 км ясно +23.7 +16.0 62 +27 +27 жарко 1015.4 1012.4
18 19.10 З 2 50 км ясно +22.1 +16.2 69 +26 +26 душно 1015.5 1012.4 +28.3
20 19.10 С 2 50 км ясно +19.5 +12.3 63 +22 +22 комфорт 1015.7 1012.6
19 19.10 С 1 н/о н/о +20.4 +12.5 60 +24 +24 комфорт 1015.6 1012.6
21 19.10 С 2 50 км ясно +19.8 +11.6 59 +22 +22 комфорт 1015.6 1012.5
22 19.10 С 2 50 км ясно +19.0 +11.2 61 +21 +21 комфорт 1015.5 1012.4
23 19.10 С 2 50 км ясно +19.4 +9.9 54 +21 +21 комфорт 1015.5 1012.4
00 20.10 СЗ 1 50 км ясно +18.9 +9.9 56 +21 +21 комфорт 1015.3 1012.2
02 20.10 СЗ 2 50 км ясно +18.1 +8.3 53 +19 +19 1015.2 1012.1
01 20.10 С 1 50 км ясно +18.5 +8.8 53 +20 +20 1015.0 1011.9
03 20.10 СЗ 1 50 км ясно +17.4 +7.8 53 +18 +18 1015.2 1012.1
04 20.10 СЗ 2 40 км ясно +17.4 +7.7 53 +18 +18 1015.5 1012.4
05 20.10 СЗ 2 50 км ясно +19.4 +5.7 41 +21 +21 комфорт 1015.8 1012.7
06 20.10 СЗ 1 50 км ясно +22.4 +8.0 40 +24 +26 комфорт 1016.3 1013.3 +16.7
08 20.10 Ю 3 40 км ясно +26.8 +12.2 40 +28 +35 жарко 1016.4 1013.4
07 20.10 СЗ 1 50 км ясно +26.1 +9.1 34 +26 +32 жарко 1016.4 1013.4
09 20.10 ЮЗ 4 40 км ясно +27.1 +16.9 54 +31 +38 душно 1016.2 1013.2
10 20.10 Ю 3 45 км ясно +28.0 +13.9 42 +30 +39 жарко 1015.8 1012.8
11 20.10 ЮЗ 4 45 км ясно +27.6 +14.8 46 +30 +37 жарко 1015.4 1012.4
12 20.10 ЮЗ 5 35 км ясно +27.2 +14.2 45 +29 +33 жарко 1015.3 1012.3
14 20.10 З 4 30 км 1/0
[Ci fib]
+25.7 +15.7 54 +29 +30 душно 1015.2 1012.2
13 20.10 З 4 30 км 1/1 1500 м
[Cu hum Ci fib]
+26.2 +16.9 57 +30 +32 душно 1015.4 1012.4
15 20.10 З 4 40 км 1/0
[Ci sp]
+24.2 +18.0 68 +28 +28 душно 1015.3 1012.3
16 20.10 З 4 30 км 1/0
[Ci sp]
+23.3 +18.9 76 +30 +30 очень
душно
1015.6 1012.5
17 20.10 З 4 40 км 1/0
[Ci fib]
+22.9 +19.2 80 +29 +29 очень
душно
1015.9 1012.9
18 20.10 З 3 40 км ясно +22.2 +19.1 83 +28 +28 душно 1016.0 1013.0 +28.7
20 20.10 З 1 40 км ясно +18.6 +14.2 76 +20 +20 1015.9 1012.8
19 20.10 С 1 40 км ясно +20.3 +17.7 85 +25 +25 комфорт 1015.8 1012.7
21 20.10 З 2 40 км ясно +18.9 +11.9 64 +20 +20 1016.2 1013.1
22 20.10 З 2 40 км ясно +17.7 +10.2 61 +18 +18 1015.7 1012.6
23 20.10 З 2 40 км ясно +17.1 +10.4 65 +18 +18 1015.4 1012.3
00 21.10 З 2 40 км ясно +17.2 +8.4 56 +18 +18 1015.3 1012.2
02 21.10 С 1 40 км ясно +15.9 +7.7 58 +17 +17 1014.8 1011.7
01 21.10 З 2 40 км ясно +16.8 +8.3 57 +17 +17 1015.0 1011.9
03 21.10 С 1 40 км ясно +15.4 +7.5 59 +16 +16 1014.8 1011.7
04 21.10 С 1 40 км ясно +14.9 +6.6 58 +16 +16 1014.8 1011.7
05 21.10 СВ 1 50 км ясно +16.4 +6.8 53 +18 +18 1015.1 1012.0
06 21.10 СВ 1 50 км ясно +20.3 +8.8 48 +23 +26 комфорт 1015.6 1012.5 +14.3
08 21.10 В 3 50 км ясно +24.9 +15.2 55 +28 +34 жарко 1015.7 1012.7
07 21.10 СВ 3 50 км ясно +23.5 +14.0 55 +26 +30 жарко 1015.8 1012.8
09 21.10 Ю 2 50 км ясно +26.4 +14.2 47 +29 +38 жарко 1015.3 1012.3
10 21.10 З 5 40 км 1/1 1500 м
[Cu hum]
+25.2 +15.8 56 +28 +34 жарко 1014.9 1011.9
11 21.10 З 5 40 км 1/1 1500 м
[Cu hum]
+25.1 +15.8 56 +28 +32 жарко 1014.3 1011.3
12 21.10 З 6 40 км 1/1 1500 м
[Cu hum]
+24.7 +16.6 61 +28 +30 душно 1013.7 1010.7
14 21.10 З 7 30 км 1/1 1500 м
[Cu hum]
+23.9 +17.2 66 +28 +28 душно 1013.4 1010.4
13 21.10 З 7 30 км 1/1 1500 м
[Cu hum]
+24.4 +17.2 64 +28 +29 душно 1013.4 1010.4
15 21.10 З 6 30 км 1/1 1200 м
[Sc]
+23.0 +17.1 69 +28 +28 душно 1013.4 1010.4
16 21.10 З 5 30 км 1/1 1500 м
[Sc]
+22.5 +17.6 74 +28 +28 душно 1013.5 1010.4
17 21.10 З 5 30 км ясно +22.4 +17.8 75 +27 +27 душно 1013.8 1010.8
18 21.10 З 5 35 км ясно +22.2 +18.3 79 +27 +27 душно 1013.8 1010.8 +26.4
20 21.10 З 5 35 км 1/0
[Ci sp]
+21.9 +17.5 76 +26 +26 душно 1013.6 1010.6
19 21.10 З 5 35 км ясно +22.1 +18.0 78 +27 +27 душно 1013.6 1010.6
21 21.10 З 3 35 км ясно +21.4 +16.8 75 +25 +25 комфорт 1013.5 1010.5
22 21.10 СЗ 2 35 км ясно +19.2 +15.5 79 +22 +22 комфорт 1013.4 1010.3
23 21.10 З 1 30 км 3/0
[Ci sp]
+19.2 +15.3 78 +22 +22 комфорт 1013.4 1010.3
00 22.10 СЗ 2 30 км 4/0
[Cs]
+18.9 +15.1 79 +21 +21 комфорт 1013.1 1010.1

 

Местоположение метеостанции Akrotiri (Кипр): широта 34.58 долгота 32.98 высота над уровнем моря 23 м.

В архиве по умолчанию представлена погода в Akrotiri за последнюю неделю. Архивные данные за месяц целиком и за предыдущие месяцы, начиная с января 2011 года, Вы можете получить, выбрав интересующий диапазон дат из раскрывающегося списка и нажав кнопку "Ввод!".

Внимание! Время в таблицах - всемирное. Для получения местного времени необходимо прибавить поправку, которая в Akrotiri равна 2 ч.

Смотрите также архив погоды в соседних городах и на ближайших метеорологических станциях:

Погода в Paphos (Кипр) (48 км)
Погода в Larnaca (Кипр) (68 км)
Погода в Athalassa (Кипр) (74 км)
Погода в Nicosia (Кипр) (79 км)
Погода в Akdeniz (Кипр) (80 км)
Погода в Kyrenia (Кипр) (91 км)
Погода в Gecitkale (Кипр) (100 км)
Погода в Lefkoniko (Кипр) (101 км)
Погода в Unknown (Турция) (104 км)
Погода в Famagusta (Кипр) (108 км)

Пояснения к столбцам:

Ветер - указаны скорость ветра в м/с - средняя за 10 мин, порывы в срок и между сроками (в фигурных скобках) и направление, откуда дует ветер: С - северный, СВ - северо-восточный, В - восточный, ЮВ - юго-восточный, Ю - южный, ЮЗ - юго-западный, З - западный, СЗ - северо-западный.
Видимость - горизонтальная дальность видимости в метрах или километрах. При видимости от 1 до 10 км при отсутствии осадков обычно наблюдается дымка, при ухудшении видимости до 1 км и менее - туман. В сухую погоду видимость может ухудшаться дымом, пылью или мглою.
Явления - указаны атмосферные явления, наблюдавшиеся в срок или в последний час перед сроком; фигурными скобками обозначены явления, наблюдавшиеся между сроками (за 1-3 часа до срока); квадратными скобками обозначены град или гололедные отложения с указанием их диаметра в мм.
Облачность - указаны через наклонную черту общая и нижняя облачность в баллах и высота нижней границы облаков в метрах; квадратными скобками обозначены формы облаков: Ci - перистые, Cs - перисто-слоистые, Cc - перисто-кучевые, Ac - высококучевые, As - высокослоистые, Sc - слоисто-кучевые, Ns - слоисто-дождевые, Cu - кучевые, Cb - кучево-дождевые. Подробнее классификацию облаков см. в Атласе облаков (PDF).
T - Температура воздуха - температура, измеренная на высоте 2 м над землей.
Td - Температура точки росы - температура, при понижении до которой содержащийся в воздухе водяной пар достигнет насыщения.
f - Относительная влажность воздуха - влажноcть воздуха, измеренная на высоте 2 м над землей.
Te - Эффективная температура - температура, которую ощущает одетый по сезону человек в тени. Характеристика душности погоды. При расчете учитывается влияние влажности воздуха и скорости ветра на теплоощущения человека.
Tes - Эффективная температура на солнце - температура, которую ощущает человек, с поправкой на солнечный нагрев. Характеристика знойности погоды. Зависит от высоты солнца над горизонтом, облачности и скорости ветра. Ночью, в пасмурную погоду, а также при ветре 12 м/с и более поправка равна нулю.
P - Атмосферное давление - приведенное к уровню моря атмосферное давление.
Po - Атмосферное давление - измеренное на уровне метеостанции атмосферное давление.
Tmin - Минимальная температура - минимум температуры воздуха на высоте 2 м над землей.
Tmax - Максимальная температура - максимум температуры воздуха на высоте 2 м над землей.
R - Количество осадков - Количество выпавших осадков за период времени, мм. При наведении курсора мыши на число - период времени, за который выпало указанное количество осадков.
R24 - Количество осадков - Количество выпавших осадков за 24 часа, мм.
S - Снежный покров - Высота снежного покрова, см. При наведении курсора мыши на число - состояние снежного покрова и степень покрытия местности в баллах.